Location: Melbourne
(37.8170°S, 144.9670°E)
Time: 09:32:53
(UTC+11:00)

ERBS - Visible Passes

Search period start: 02 April 2015 00:00
Search period end: 11 April 2015 23:00
Orbit: 451 x 474 km, 57.0° (Epoch: 31 March)

Date Brightness Start Highest point End Pass type
(mag) Time Alt. Az. Time Alt. Az. Time Alt. Az.
08 Apr 5.2 05:45:27 10° S 05:47:43 16° SSE 05:50:03 10° ESE visible
09 Apr 5.3 05:12:25 10° S 05:14:09 13° SSE 05:15:57 10° ESE visible
10 Apr 5.5 04:39:43 10° SSE 04:40:31 11° SSE 04:41:25 10° SE visible
10 Apr 2.9 06:14:49 10° SW 06:18:31 65° SE 06:22:08 10° NE visible
11 Apr 3.5 05:41:24 10° SSW 05:45:00 47° SE 05:48:32 10° ENE visible
